カタログに戻る

FENGYUN 1C DEB

運用中SSO
NORAD 29858·DEBRIS·🇨🇳 China

打ち上げ May 10, 1999 から Taiyuan Satellite Launch Center

Loading…

次のパス (今後24時間)

TLE

最新Source: Space-Track

元期: Sep 14, 2026, 06:05 UTC

1 29858U 99025FC  26257.25416571  .00000548  00000-0  50505-3 0  9995
2 29858  99.2162 356.0033 0195784  55.0448 332.8065 13.78493493983494

AllMySatでFENGYUN 1C DEBをリアルタイム追跡

Download on the App Store